When you browse on this site, cookies collect data to enhance your experience and personalize the content and advertising you see.
Visit our Privacy Policy to learn more. By continuing to use the site, you agree to this use of cookies and data.
  • In Hungary
  • List of Countries
  • For 7 days
  • Water Temperature
  • Satellite Maps
  • Weather Map
  • News
  • Weather Widgets
  • user-avatar
    Login

    Hourly Weather Potashnya

    Today, 17 July, Wednesday

    Time Temperature Precipitation Wind Pressure Humidity
    00:00 +16°C° 0 mm 1 mps 737 mmHg 79%
    01:00 +15°C° 0 mm 2 mps 737 mmHg 80%
    02:00 +15°C° 0 mm 2 mps 737 mmHg 80%
    03:00 +15°C° 0 mm 2 mps 737 mmHg 81%
    04:00 +14°C° 0 mm 2 mps 737 mmHg 82%
    05:00 +14°C° 0 mm 2 mps 737 mmHg 83%
    06:00 +16°C° 0 mm 2 mps 737 mmHg 79%
    07:00 +17°C° 0 mm 3 mps 737 mmHg 76%
    08:00 +19°C° 0 mm 3 mps 737 mmHg 72%
    09:00 +20°C° 0.3 mm 3 mps 737 mmHg 68%
    10:00 +20°C° 0.3 mm 4 mps 738 mmHg 64%
    11:00 +21°C° 0.3 mm 4 mps 738 mmHg 60%
    12:00 +21°C° 0.2 mm 3 mps 737 mmHg 61%
    13:00 +21°C° 0.2 mm 3 mps 737 mmHg 61%
    14:00 +22°C° 0.2 mm 3 mps 736 mmHg 62%
    15:00 +22°C° 0.3 mm 3 mps 737 mmHg 62%
    16:00 +22°C° 0.3 mm 3 mps 737 mmHg 62%
    17:00 +22°C° 0.3 mm 3 mps 737 mmHg 62%
    18:00 +20°C° 0 mm 3 mps 737 mmHg 67%
    19:00 +19°C° 0 mm 3 mps 736 mmHg 72%
    20:00 +17°C° 0 mm 2 mps 736 mmHg 78%
    21:00 +17°C° 0 mm 2 mps 736 mmHg 80%
    22:00 +16°C° 0 mm 3 mps 737 mmHg 83%
    23:00 +14°C° 0 mm 3 mps 737 mmHg 85%

    Tomorrow, 18 July, Thursday

    Time Temperature Precipitation Wind Pressure Humidity
    00:00 +14°C° 0 mm 3 mps 737 mmHg 87%
    01:00 +13°C° 0 mm 3 mps 737 mmHg 89%
    02:00 +13°C° 0 mm 3 mps 737 mmHg 91%
    03:00 +12°C° 0 mm 3 mps 737 mmHg 92%
    04:00 +12°C° 0 mm 3 mps 737 mmHg 93%
    05:00 +12°C° 0 mm 3 mps 737 mmHg 93%
    06:00 +13°C° 0 mm 3 mps 738 mmHg 85%
    07:00 +15°C° 0 mm 4 mps 738 mmHg 77%
    08:00 +18°C° 0 mm 4 mps 738 mmHg 70%
    09:00 +19°C° 0 mm 4 mps 739 mmHg 65%
    10:00 +21°C° 0 mm 4 mps 739 mmHg 60%
    11:00 +22°C° 0 mm 5 mps 739 mmHg 56%
    12:00 +23°C° 0 mm 4 mps 739 mmHg 54%
    13:00 +23°C° 0 mm 4 mps 739 mmHg 53%
    14:00 +23°C° 0 mm 4 mps 739 mmHg 51%
    15:00 +23°C° 0 mm 4 mps 739 mmHg 52%
    16:00 +23°C° 0 mm 4 mps 739 mmHg 54%
    17:00 +23°C° 0 mm 4 mps 739 mmHg 55%
    18:00 +21°C° 0 mm 4 mps 740 mmHg 62%
    19:00 +20°C° 0 mm 3 mps 740 mmHg 69%
    20:00 +18°C° 0 mm 2 mps 740 mmHg 75%
    21:00 +17°C° 0 mm 2 mps 740 mmHg 78%
    22:00 +16°C° 0 mm 2 mps 741 mmHg 80%
    23:00 +16°C° 0 mm 2 mps 741 mmHg 83%

    Day after tomorrow, 19 July, Friday

    Time Temperature Precipitation Wind Pressure Humidity
    00:00 +15°C° 0 mm 2 mps 741 mmHg 85%
    01:00 +15°C° 0 mm 2 mps 741 mmHg 88%
    02:00 +14°C° 0 mm 2 mps 741 mmHg 90%
    03:00 +15°C° 0 mm 1 mps 741 mmHg 90%
    04:00 +15°C° 0 mm 1 mps 742 mmHg 91%
    05:00 +15°C° 0 mm 1 mps 742 mmHg 91%
    06:00 +16°C° 0 mm 1 mps 742 mmHg 85%
    07:00 +19°C° 0 mm 1 mps 742 mmHg 78%
    08:00 +20°C° 0 mm 2 mps 743 mmHg 72%
    09:00 +21°C° 0 mm 2 mps 743 mmHg 65%
    10:00 +23°C° 0 mm 2 mps 743 mmHg 58%
    11:00 +25°C° 0 mm 2 mps 743 mmHg 52%
    12:00 +25°C° 0 mm 2 mps 743 mmHg 49%
    13:00 +26°C° 0 mm 2 mps 743 mmHg 47%
    14:00 +27°C° 0 mm 2 mps 743 mmHg 45%
    15:00 +26°C° 0 mm 2 mps 742 mmHg 46%
    16:00 +26°C° 0 mm 2 mps 742 mmHg 48%
    17:00 +26°C° 0 mm 2 mps 742 mmHg 49%
    18:00 +25°C° 0 mm 1 mps 742 mmHg 54%
    19:00 +23°C° 0 mm 1 mps 742 mmHg 60%
    20:00 +19°C° 0 mm 0 mps 742 mmHg 65%
    21:00 +19°C° 0 mm 0 mps 743 mmHg 66%
    22:00 +20°C° 0 mm 1 mps 743 mmHg 68%
    23:00 +20°C° 0 mm 1 mps 743 mmHg 69%

    20 July, Saturday

    Time Temperature Precipitation Wind Pressure Humidity
    00:00 +19°C° 0 mm 1 mps 743 mmHg 72%
    01:00 +19°C° 0 mm 1 mps 743 mmHg 74%
    02:00 +18°C° 0 mm 2 mps 743 mmHg 77%
    03:00 +18°C° 0 mm 1 mps 743 mmHg 81%
    04:00 +18°C° 0 mm 1 mps 743 mmHg 84%
    05:00 +16°C° 0 mm 1 mps 743 mmHg 88%
    06:00 +19°C° 0 mm 1 mps 743 mmHg 81%
    07:00 +21°C° 0 mm 1 mps 743 mmHg 74%
    08:00 +23°C° 0 mm 1 mps 743 mmHg 67%
    09:00 +25°C° 0 mm 2 mps 744 mmHg 61%
    10:00 +27°C° 0 mm 2 mps 744 mmHg 56%
    11:00 +28°C° 0 mm 2 mps 744 mmHg 50%
    12:00 +29°C° 0 mm 2 mps 744 mmHg 48%
    13:00 +29°C° 0 mm 2 mps 744 mmHg 47%
    14:00 +30°C° 0 mm 2 mps 743 mmHg 45%
    15:00 +29°C° 0 mm 2 mps 743 mmHg 46%
    16:00 +29°C° 0 mm 1 mps 743 mmHg 47%
    17:00 +29°C° 0 mm 1 mps 743 mmHg 48%
    18:00 +27°C° 0.3 mm 1 mps 743 mmHg 58%
    19:00 +24°C° 0.3 mm 2 mps 743 mmHg 67%
    20:00 +21°C° 0.3 mm 2 mps 743 mmHg 77%
    21:00 +20°C° 0.3 mm 2 mps 743 mmHg 80%
    22:00 +19°C° 0.3 mm 2 mps 744 mmHg 83%
    23:00 +19°C° 0.3 mm 3 mps 744 mmHg 86%

    21 July, Sunday

    Time Temperature Precipitation Wind Pressure Humidity
    00:00 +18°C° 0.1 mm 2 mps 744 mmHg 87%
    01:00 +18°C° 0.1 mm 2 mps 744 mmHg 87%
    02:00 +19°C° 0.1 mm 1 mps 743 mmHg 87%
    03:00 +19°C° 0 mm 1 mps 743 mmHg 88%
    04:00 +19°C° 0 mm 1 mps 743 mmHg 88%
    05:00 +18°C° 0 mm 1 mps 743 mmHg 89%
    06:00 +19°C° 0 mm 2 mps 743 mmHg 84%
    07:00 +21°C° 0 mm 2 mps 744 mmHg 78%
    08:00 +23°C° 0 mm 2 mps 744 mmHg 73%
    09:00 +25°C° 0 mm 2 mps 744 mmHg 67%
    10:00 +27°C° 0 mm 1 mps 744 mmHg 60%
    11:00 +28°C° 0 mm 1 mps 744 mmHg 53%
    12:00 +29°C° 0.1 mm 1 mps 744 mmHg 51%
    13:00 +29°C° 0.1 mm 2 mps 744 mmHg 48%
    14:00 +30°C° 0.1 mm 2 mps 744 mmHg 45%
    15:00 +29°C° 0 mm 2 mps 744 mmHg 47%
    16:00 +29°C° 0 mm 2 mps 743 mmHg 48%
    17:00 +29°C° 0 mm 1 mps 743 mmHg 50%
    18:00 +27°C° 0 mm 1 mps 743 mmHg 54%
    19:00 +26°C° 0 mm 1 mps 743 mmHg 59%
    20:00 +24°C° 0 mm 1 mps 743 mmHg 64%
    21:00 +23°C° 0 mm 2 mps 743 mmHg 67%
    22:00 +23°C° 0 mm 2 mps 743 mmHg 69%
    23:00 +21°C° 0 mm 2 mps 743 mmHg 71%

    22 July, Monday

    Time Temperature Precipitation Wind Pressure Humidity
    00:00 +21°C° 0 mm 2 mps 743 mmHg 74%
    01:00 +20°C° 0 mm 2 mps 743 mmHg 76%
    02:00 +21°C° 0 mm 1 mps 743 mmHg 79%
    03:00 +20°C° 0 mm 2 mps 743 mmHg 78%
    04:00 +20°C° 0 mm 2 mps 743 mmHg 78%
    05:00 +20°C° 0 mm 2 mps 743 mmHg 78%
    06:00 +21°C° 0.1 mm 2 mps 743 mmHg 73%
    07:00 +24°C° 0.1 mm 2 mps 743 mmHg 69%
    08:00 +26°C° 0.1 mm 2 mps 743 mmHg 65%
    09:00 +27°C° 0.2 mm 2 mps 743 mmHg 60%
    10:00 +28°C° 0.2 mm 2 mps 743 mmHg 55%
    11:00 +30°C° 0.2 mm 3 mps 743 mmHg 50%
    12:00 +30°C° 0.3 mm 3 mps 742 mmHg 48%
    13:00 +31°C° 0.3 mm 3 mps 742 mmHg 47%
    14:00 +31°C° 0.3 mm 3 mps 742 mmHg 45%
    15:00 +31°C° 0.1 mm 2 mps 742 mmHg 47%
    16:00 +30°C° 0.1 mm 2 mps 741 mmHg 49%
    17:00 +30°C° 0.1 mm 2 mps 741 mmHg 51%
    18:00 +28°C° 0.4 mm 2 mps 741 mmHg 60%
    19:00 +26°C° 0.4 mm 2 mps 741 mmHg 69%
    20:00 +24°C° 0.4 mm 2 mps 741 mmHg 78%
    21:00 +23°C° 0.6 mm 1 mps 741 mmHg 80%
    22:00 +22°C° 0.6 mm 1 mps 740 mmHg 83%
    23:00 +20°C° 0.6 mm 0 mps 740 mmHg 85%
    Show more